Location: Archemont
(49.1579°N, 1.7598°E)
Time: 10:00:30
(UTC+00:00)

Altair - Pass Details

Date: 20 April 2024
Orbit: 1501 x 1682 km, 47.2° (Epoch: 17 May)

Event Time Altitude Azimuth Distance (km) Brightness Sun altitude
Rises 19:28:01 0° 239° (WSW) 4,915 10.6 -6.0°
Reaches altitude 10° 19:31:14 10° 236° (WSW) 3,917 10.1 -6.5°
Maximum altitude 19:41:06 65° 158° (SSE) 1,765 7.7 -7.9°
Drops below altitude 10° 19:50:39 10° 80° (E) 3,797 9.1 -9.3°
Sets 19:53:43 0° 77° (ENE) 4,759 9.6 -9.7°
